STARLINK-35032 (65382 NORAD) Tracking and Keplerian Element Data

This shows tracking and keplerian element data for the satellite.

Feedback or suggestion? Click here.




ElementValue
Catalog65382
NameSTARLINK-35032
Epoch Orbit1831
Epoch Day354.23870584
Epoch Year2025
RAAN223.2032
Inclination97.6039
Eccentricity0.0002481
Argument of Perigee90.7934
Mean Anonmoly269.3577
Mean Motion15.05641581
Decay Rate3.654E-05
L11 65382U 25191D 25354.23870584 .00003654 00000+0 25735-3 0 9990
L22 65382 97.6039 223.2032 0002481 90.7934 269.3577 15.05641581 18319



Live tracking and technical data element details for STARLINK-35032 (NORAD 65382). STARLINK-35032 can be tracked NOW for your location showing map with azimuth and elevation plus other details from your city location.







IsCatalogInMostPopularTable: catalog: 65382, numindb: 4
Update: records affected: 1



GetName: 65382 STARLINK-35032

Hit Count: updated at: Sun, 08 Feb 2026 17:57:28 GMT